Station 46027 (LLNR 562) - ST GEORGES - 8 NM NW of Crescent City, CA Image indicating link to RSS feed of recent meteorological observations for station 46027


Conditions at 46027 as of
(4:40 am PDT)
1140 GMT on 04/14/2024:
     

Click on the graph icon in the table below to see a time series plot of the last five days of that observation.

5-day plot - Wind Direction Wind Direction (WDIR):SSE ( 160 deg true )
5-day plot - Wind Speed Wind Speed (WSPD): 9.7 kts
5-day plot - Wind Gust Wind Gust (GST): 11.7 kts
5-day plot - Atmospheric Pressure Atmospheric Pressure (PRES):30.01 in
5-day plot - Air Temperature Air Temperature (ATMP): 50.7 °F
5-day plot - Water Temperature Water Temperature (WTMP): 50.7 °F
5-day plot - Wind Chill Wind Chill (CHILL): 46.6 °F
5-day plot - Wind Speed at 10 Meters Wind Speed at 10 meters (WSPD10M): 9.7 kts
5-day plot - Wind Speed at 20 Meters Wind Speed at 20 meters (WSPD20M): 11.7 kts
5-day plot -  Wind Speed, Wind Gust and Atmospheric Pressure Combined plot of Wind Speed, Gust, and Air Pressure
Supplemental Measurements
Highest 1-minute Wind Speed
Time (PDT)5-day plot - 1-Minute Wind Speed WSPD 5-day plot - 1-Minute Wind Direction WDIR
4:34 am 9.7 kts-
Previous observations
TIME
(PDT)
5-day plot - Wind Direction
WDIR
 
5-day plot - Wind Speed
WSPD
kts
5-day plot - Wind Gust
GST
kts
5-day plot - Wave Height
WVHT
ft
5-day plot - Dominant Wave Period
DPD
sec
5-day plot - Average Wave Period
APD
sec
5-day plot - Mean Wave Direction
MWD
 
5-day plot - Atmospheric Pressure
PRES
in
5-day plot - Pressure Tendency
PTDY
in
5-day plot - Air Temperature
ATMP
°F
5-day plot - Water Temperature
WTMP
°F
5-day plot - Dew Point
DEWP
°F
5-day plot - Salinity
SAL
psu
5-day plot - Visibility
VIS
nmi
5-day plot - Tide (above MLLW)
TIDE
ft
2024-04-14 04:30 am S 9.7 13.6----30.00- 50.9 50.9----
2024-04-14 04:20 amSSE 9.7 13.6 7.2 107.5WNW30.00- 50.7 50.9----
2024-04-14 04:10 amSSE 9.7 13.6 7.2-7.5WNW30.00- 50.7 50.9----
2024-04-14 04:00 amSSE 9.7 13.6----30.00-0.01 50.4 50.9----
2024-04-14 03:50 am S 7.8 11.7 7.9 107.7WNW30.00- 49.8 50.9----
2024-04-14 03:40 am S 9.7 11.7----30.00- 49.5 50.9----
2024-04-14 03:30 am S 9.7 11.7----30.00- 49.5 50.9----
2024-04-14 03:20 amSSE 7.8 11.7 7.2 107.5WNW30.01- 49.6 50.9----
2024-04-14 03:10 amSSE 7.8 11.7 7.2-7.5WNW30.01- 49.6 51.1----
2024-04-14 03:00 amSSE 9.7 11.7----30.01+0.01 49.5 51.1----
2024-04-14 02:50 amSSE 7.8 11.7 6.9 107.4WNW30.01- 49.6 51.1----
2024-04-14 02:40 amSSE 7.8 13.6----30.01- 49.8 51.1----
2024-04-14 02:30 amSSE 7.8 11.7----30.01- 50.0-----
2024-04-14 02:20 amSSE 9.7 11.7 6.9 97.3 NW30.01- 49.8 51.1----
2024-04-14 02:10 amSSE 7.8 13.6 6.9-7.3 NW30.01- 50.0 51.1----
2024-04-14 02:00 am S 7.8 9.7----30.02+0.02 50.0 51.1----
2024-04-14 01:50 amSSE 7.8 11.7 7.9 107.9WNW30.02- 50.2 51.1----
2024-04-14 01:40 amSSE 7.8 11.7----30.01- 50.4 51.1----
2024-04-14 01:30 amSSE 7.8 11.7----30.01- 50.5 51.3----
2024-04-14 01:20 amSSE 7.8 9.7 7.2 118.0WNW30.01- 50.9 51.3----
2024-04-14 01:10 am SE 5.8 9.7 7.2-8.0WNW30.01- 51.1 51.3----
2024-04-14 01:00 amSSE 5.8 7.8----30.02+0.02 51.4 51.3----
2024-04-14 12:50 am S 5.8 9.7 6.2 107.6WNW30.01- 51.6 51.3----
2024-04-14 12:40 am S 5.8 7.8 6.2-7.6WNW30.00- 51.4 51.4----
2024-04-14 12:30 amSSW 5.8 7.8----29.99- 51.4 51.3----
2024-04-14 12:20 amSSW 7.8 9.7 6.6 117.7WNW29.99- 51.3 51.4----
2024-04-14 12:10 amSSW 7.8 9.7 6.6-7.7WNW29.99- 51.3 51.3----
2024-04-14 12:00 amSSW 7.8 9.7----30.00+0.03 51.3 51.3----
2024-04-13 11:50 pmSSW 7.8 9.7 6.9 117.9WNW29.99- 51.3 51.3----
2024-04-13 11:40 pmSSW 7.8 9.7 6.9-7.9WNW29.99- 51.3 51.3----
2024-04-13 11:30 pmSSW 5.8 7.8----29.99- 51.1 51.3----
2024-04-13 11:20 pm S 5.8 7.8 7.2 118.2WNW29.99- 51.1 51.1----
2024-04-13 11:10 pm S 5.8 9.7 7.2-8.2WNW30.00- 50.9 51.1----
2024-04-13 11:00 pm S 5.8 7.8----30.00+0.07 50.7 50.9----
2024-04-13 10:50 pmSSW 5.8 7.8 6.9 117.8WNW29.99- 50.7 50.9----
2024-04-13 10:40 pmSSW 5.8 7.8----29.99- 50.7 50.5----
2024-04-13 10:30 pmSSW 3.9 5.8----30.00- 50.7 50.9----
2024-04-13 10:20 pmSSW 3.9 5.8 6.9 107.7WNW30.00- 50.7 50.7----
2024-04-13 10:10 pmWSW 1.9 3.9 6.9-7.7WNW30.00- 50.7 50.9----
2024-04-13 10:00 pm W 3.9 5.8----29.99+0.06 50.5 51.1----
2024-04-13 09:50 pm W 3.9 5.8 6.2 117.1 W29.99- 50.5 51.1----
2024-04-13 09:40 pm W 3.9 5.8----29.99- 50.5 50.9----
2024-04-13 09:30 pm W 5.8 7.8----29.98- 50.2 51.1----
2024-04-13 09:20 pmWSW 7.8 9.7 7.9 117.9 W29.98- 50.4 51.3----
2024-04-13 09:10 pmWSW 9.7 11.7 7.9-7.9 W29.98- 50.2 51.3----
2024-04-13 09:00 pmWSW 11.7 13.6----29.97+0.04 50.4 51.1----
2024-04-13 08:50 pm SW 9.7 13.6 7.9 117.9WNW29.97- 50.9 51.1----
2024-04-13 08:40 pm SW 7.8 9.7----29.97- 50.9 51.3----
2024-04-13 08:30 pm SW 7.8 11.7----29.96- 51.1 51.3----
2024-04-13 08:20 pmWSW 7.8 9.7 6.9 117.4WNW29.95- 51.4 51.1----
2024-04-13 08:10 pmWSW 5.8 9.7 6.9-7.4WNW29.93- 51.3 51.1----
2024-04-13 08:00 pmWSW 5.8 7.8----29.92+0.01 51.3 50.7----
2024-04-13 07:50 pm W 5.8 7.8 7.5 117.6WNW29.93- 51.3 50.4----
2024-04-13 07:40 pm W 3.9 7.8----29.93- 51.3 50.5----
2024-04-13 07:30 pm W 5.8 7.8----29.93- 51.3 50.7----
2024-04-13 07:20 pm W 5.8 7.8 7.9 117.8WNW29.92- 51.3 50.9----
2024-04-13 07:10 pmWNW 5.8 7.8----29.92- 51.4 51.1----
2024-04-13 07:00 pmWNW 3.9 7.8----29.93+0.00 51.3 50.9----
2024-04-13 06:50 pm NW 3.9 5.8 7.9 117.7WNW29.93- 51.4 51.1----
2024-04-13 06:40 pm NW 3.9 5.8----29.94- 51.4 51.1----
2024-04-13 06:30 pm NW 3.9 7.8----29.94- 51.4 51.1----
2024-04-13 06:20 pm NW 5.8 7.8 7.9 117.6WNW29.94- 51.4 51.3----
2024-04-13 06:10 pm NW 5.8 7.8 7.9-7.6WNW29.93- 51.6 51.3----
2024-04-13 06:00 pm NW 5.8 7.8----29.93+0.00 51.6-----
2024-04-13 05:50 pm NW 5.8 7.8 8.2 117.7 W29.93- 51.6 51.3----
2024-04-13 05:40 pm NW 3.9 7.8----29.92- 51.6 51.3----
2024-04-13 05:30 pmNNW 3.9 5.8----29.93- 51.6 51.4----
2024-04-13 05:20 pm N 3.9 5.8 8.5 118.0WNW29.92- 51.6 51.4----
2024-04-13 05:10 pm N 3.9 5.8----29.92- 51.8 51.4----
2024-04-13 05:00 pmNNE 1.9 3.9----29.92+0.00 52.0 51.1----
2024-04-13 04:50 pmNNE 1.9 3.9 8.9 118.2WNW29.92- 52.0 51.3----
2024-04-13 04:40 pm- 0.0 1.9----29.92- 52.0 51.3----
2024-04-13 04:20 pmSSE 3.9 5.8 7.5 117.8WNW29.93- 51.6 51.3----
2024-04-13 04:10 pm S 3.9 7.8 7.5-7.8WNW29.93- 51.6 51.1----
2024-04-13 04:00 pmSSE 3.9 7.8----29.93+0.03 51.6 51.3----
2024-04-13 03:50 pm S 5.8 9.7 8.5 118.2WNW29.93- 51.4 51.1----
2024-04-13 03:40 pm S 7.8 9.7----29.93- 51.4 51.3----
2024-04-13 03:30 pm S 7.8 11.7----29.93- 51.4 51.3----
2024-04-13 03:20 pm S 7.8 11.7 8.5 108.2WNW29.93- 51.6 51.1----
2024-04-13 03:10 pm S 7.8 9.7 8.5-8.2WNW29.92- 51.4 51.1----
2024-04-13 03:00 pm S 7.8 11.7----29.92+0.02 51.4 51.1----
2024-04-13 02:50 pm S 7.8 9.7 8.2 118.4 W29.92- 51.4 51.1----
2024-04-13 02:40 pm S 7.8 9.7----29.93- 51.6 50.9----
2024-04-13 02:30 pm S 7.8 11.7----29.92- 51.6 50.9----
2024-04-13 02:20 pm S 7.8 9.7 8.9 118.5WNW29.92- 51.6 50.9----
2024-04-13 02:10 pm S 7.8 9.7 8.9-8.5WNW29.92- 51.6 50.9----
2024-04-13 02:00 pm S 7.8 9.7----29.92+0.03 51.6 50.9----
2024-04-13 01:50 pm S 7.8 9.7 8.5 118.5WNW29.91- 51.6 51.1----
2024-04-13 01:40 pmSSW 7.8 9.7----29.91- 51.6 50.9----
2024-04-13 01:30 pmSSW 7.8 9.7----29.90- 51.8 51.1----
2024-04-13 01:20 pmSSW 7.8 9.7 9.2 118.7WNW29.90- 51.6 50.7----
2024-04-13 01:10 pm SW 7.8 9.7 9.2-8.7WNW29.90- 51.6 51.1----
2024-04-13 01:00 pmSSW 7.8 9.7----29.90+0.02 51.8 50.9----
2024-04-13 12:50 pm SW 7.8 9.7 9.2 118.9 W29.90- 51.6 50.9----
2024-04-13 12:40 pmSSW 7.8 7.8 9.2-8.9 W29.90- 51.6 50.9----
2024-04-13 12:30 pmSSW 7.8 9.7----29.90- 51.6 50.7----
2024-04-13 12:20 pmSSW 7.8 9.7 8.2 118.8WNW29.90- 51.4 50.7----
2024-04-13 12:10 pmSSW 7.8 9.7----29.91- 51.4 50.7----
2024-04-13 12:00 pm S 7.8 9.7----29.91+0.05 51.4 50.7----
2024-04-13 11:50 am S 7.8 9.7 7.9 118.7WNW29.91- 51.4 50.7----
2024-04-13 11:40 am S 7.8 9.7----29.91- 51.3 50.5----
2024-04-13 11:30 am S 7.8 9.7----29.91- 51.3 50.5----
2024-04-13 11:20 amSSW 7.8 9.7 9.2 129.4 W29.90- 51.3 50.7----
2024-04-13 11:10 am S 7.8 11.7 9.2-9.4 W29.90- 51.1 50.7----
2024-04-13 11:00 am S 7.8 9.7----29.90+0.06 51.1 50.7----
2024-04-13 10:50 am S 7.8 9.7 7.5 128.5 W29.89- 51.1 50.7----
2024-04-13 10:40 am S 7.8 9.7 7.5-8.5 W29.89- 51.1 50.5----
2024-04-13 10:30 am S 7.8 9.7----29.89- 50.9 50.7----
2024-04-13 10:20 am S 7.8 11.7 7.2 118.1 W29.88- 50.9 50.7----
2024-04-13 10:10 am S 7.8 9.7----29.88- 51.1 50.5----
2024-04-13 10:00 am S 7.8 11.7----29.88+0.08 51.1 50.4----
2024-04-13 09:50 am S 7.8 11.7 8.2 118.7 W29.88- 50.9 50.4----
2024-04-13 09:40 amSSE 7.8 11.7----29.87- 50.9 50.4----
2024-04-13 09:30 amSSE 7.8 11.7----29.87- 50.9 50.4----
2024-04-13 09:20 am S 7.8 11.7 8.5 118.5 W29.86- 50.7 50.4----
2024-04-13 09:10 am S 7.8 11.7 8.5-8.5 W29.86- 50.5 50.4----
2024-04-13 09:00 am S 5.8 9.7----29.85+0.09 51.1 50.2----
2024-04-13 08:50 am S 7.8 9.7 9.8 119.0 W29.85- 51.3 50.2----
2024-04-13 08:40 am S 7.8 11.7----29.85- 51.3 50.0----
2024-04-13 08:30 amSSW 7.8 9.7----29.85- 51.4 49.8----
2024-04-13 08:20 amSSW 9.7 11.7 7.9 118.4 W29.84- 51.3 50.2----
2024-04-13 08:10 amSSW 11.7 13.6 7.9-8.4 W29.84- 51.1 50.4----
2024-04-13 08:00 amSSW 13.6 17.5----29.83+0.07 51.3 50.4----
2024-04-13 07:50 am S 11.7 15.5 9.5 119.0 W29.83- 51.4 50.4----
2024-04-13 07:40 am S 9.7 13.6----29.83- 51.4 50.4----
2024-04-13 07:30 am S 7.8 11.7----29.82- 51.4 50.4----
2024-04-13 07:20 am S 7.8 9.7 7.9 118.5WNW29.81- 51.4 50.4----
2024-04-13 07:10 am S 3.9 5.8 7.9-8.5WNW29.80- 51.4 50.4----
2024-04-13 07:00 amSSW 3.9 7.8----29.80+0.03 51.4 50.4----
2024-04-13 06:50 amSSW 3.9 5.8 7.5 118.3 W29.80- 51.4 50.4----
2024-04-13 06:40 am W 1.9 5.8----29.79- 51.4 50.4----
2024-04-13 06:30 amWSW 1.9 3.9----29.78- 51.4 50.4----
2024-04-13 06:20 am SW 1.9 5.8 8.5 118.6 W29.78- 51.3 50.5----
2024-04-13 06:10 am S 3.9 7.8 8.5-8.6 W29.77- 51.3 50.5----
2024-04-13 06:00 amESE 1.9 7.8----29.77+0.01 51.3 50.5----
2024-04-13 05:50 am N 5.8 7.8 7.5 118.6 W29.76- 51.1 50.5----
2024-04-13 05:40 am N 7.8 9.7----29.75- 51.1 50.5----
2024-04-13 05:30 am N 7.8 11.7----29.75- 51.1 50.5----
2024-04-13 05:20 amNNE 7.8 11.7 8.2 128.8 W29.75- 51.1 50.5----
2024-04-13 05:10 amNNE 7.8 9.7----29.76- 51.1 50.5----
2024-04-13 05:00 amNNE 7.8 7.8----29.75-0.01 50.9 50.5----
2024-04-13 04:50 amNNE 7.8 9.7 7.5 128.6 W29.75- 50.9 50.5----

Detailed Wave Summary
for 46027 as of (4:10 am PDT)
1110 GMT on 04/14/2024:

These wave data are displayed in rounded times.

     

Click on the graph icon in the table below to see a time series plot of the last five days of that observation.

5-day plot - Significant Wave Height Significant Wave Height (WVHT): 7.2 ft
5-day plot - Swell Height Swell Height (SwH): 6.9 ft
5-day plot - Swell Period Swell Period (SwP): 10.0 sec
5-day plot - Swell Direction Swell Direction (SwD):WNW
5-day plot - Wind Wave Height Wind Wave Height (WWH): 2.0 ft
5-day plot - Wind Wave Period Wind Wave Period (WWP): 3.2 sec
5-day plot - Wind Wave Direction Wind Wave Direction (WWD): SW
5-day plot - Wave Steepness Wave Steepness (STEEPNESS): AVERAGE
5-day plot - Average Wave Period Average Wave Period (APD): 7.5 sec
Previous observations
TIME
(PDT)
5-day plot - Wave Height
WVHT
ft
5-day plot - Swell Height
SwH
ft
5-day plot - Swell Period
SwP
sec
5-day plot - Swell Direction
SwD
 
5-day plot - Wind Wave Height
WWH
ft
5-day plot - Wind Wave Period
WWP
sec
5-day plot - Wind Wave Direction
WWD
 
5-day plot - Wave Steepness
STEEPNESS
 
5-day plot - Average Wave Period
APD
sec
2024-04-14 03:40 am 7.9 7.5 10.0WNW 1.6 3.3 SW AVERAGE 7.7
2024-04-14 03:10 am 7.2 7.2 10.0WNW 1.3 3.8 SW AVERAGE 7.5
2024-04-14 02:40 am 6.9 6.6 10.0WNW 1.6 3.0 SSW AVERAGE 7.4
2024-04-14 02:10 am 6.9 6.6 9.1 NW 1.3 3.7 SSW AVERAGE 7.3
2024-04-14 01:40 am 7.9 7.5 10.0WNW 1.3 3.7 SSW AVERAGE 7.9
2024-04-14 01:10 am 7.2 7.2 10.8WNW 1.0 3.8 S SWELL 8.0
2024-04-14 12:40 am 6.2 6.2 10.0WNW 1.3 3.8 SSW SWELL 7.6
2024-04-14 12:10 am 6.6 6.6 10.8WNW 1.0 3.7 SW SWELL 7.7
2024-04-13 11:40 pm 6.9 6.6 10.8WNW 1.0 3.7 SSW SWELL 7.9
2024-04-13 11:10 pm 7.2 7.2 10.8WNW 1.3 4.0 SW SWELL 8.2
2024-04-13 10:40 pm 6.9 6.9 10.8WNW 1.3 3.8 WSW SWELL 7.8
2024-04-13 10:10 pm 6.9 6.6 10.0WNW 1.3 4.0 WSW AVERAGE 7.7
2024-04-13 09:40 pm 6.2 5.9 10.8 W 1.3 3.6 W SWELL 7.1
2024-04-13 09:10 pm 7.9 7.9 10.8 W 2.0 4.3 W SWELL 7.9
2024-04-13 08:40 pm 7.9 7.5 10.8WNW 1.3 3.7 WSW SWELL 7.9
2024-04-13 08:10 pm 6.9 6.9 11.4WNW 1.3 3.8 W SWELL 7.4
2024-04-13 07:40 pm 7.5 7.5 10.8WNW 1.6 4.0 WSW SWELL 7.6
2024-04-13 07:10 pm 7.9 7.5 11.4WNW 1.6 4.0 W SWELL 7.8
2024-04-13 06:40 pm 7.9 7.9 11.4WNW 1.6 3.8 WSW SWELL 7.7
2024-04-13 06:10 pm 7.9 7.5 11.4WNW 1.6 3.4 WSW SWELL 7.6
2024-04-13 05:40 pm 8.2 7.9 10.8 W 1.6 3.6 WSW SWELL 7.7
2024-04-13 05:10 pm 8.5 8.2 10.8WNW 1.6 4.0 WSW SWELL 8.0
2024-04-13 04:40 pm 8.9 8.5 11.4WNW 1.6 4.0 W SWELL 8.2
2024-04-13 04:10 pm 7.5 7.5 11.4WNW 1.6 3.6 SW SWELL 7.8
2024-04-13 03:40 pm 8.5 8.5 10.8WNW 1.6 3.8 WSW AVERAGE 8.2
2024-04-13 03:10 pm 8.5 8.2 10.0WNW 1.6 3.6 WSW AVERAGE 8.2
2024-04-13 02:40 pm 8.2 7.9 11.4 W 1.3 3.8 WSW SWELL 8.4
2024-04-13 02:10 pm 8.9 8.5 11.4WNW 1.6 3.8 SW SWELL 8.5
2024-04-13 01:40 pm 8.5 8.5 10.8WNW 1.3 3.8 S AVERAGE 8.5
2024-04-13 01:10 pm 9.2 8.9 11.4WNW 1.6 3.8 S SWELL 8.7
2024-04-13 12:40 pm 9.2 8.9 11.4 W 1.3 3.4 SSW SWELL 8.9
2024-04-13 12:10 pm 8.2 7.9 10.8WNW 1.3 3.4 S SWELL 8.8
2024-04-13 11:40 am 7.9 7.9 11.4WNW 1.3 3.4 SSE SWELL 8.7
2024-04-13 11:10 am 9.2 9.2 12.1 W 1.3 3.8 SSW SWELL 9.4
2024-04-13 10:40 am 7.5 7.2 12.1 W 1.3 3.4 SSW SWELL 8.5
2024-04-13 10:10 am 7.2 7.2 11.4 W 1.3 3.6 WNW SWELL 8.1
2024-04-13 09:40 am 8.2 8.2 10.8 W 1.3 4.3 WNW SWELL 8.7
2024-04-13 09:10 am 8.5 8.2 11.4 W 1.3 3.7 WNW SWELL 8.5
2024-04-13 08:40 am 9.8 9.5 10.8 W 1.3 3.7 NW AVERAGE 9.0
2024-04-13 08:10 am 7.9 7.5 11.4 W 2.0 3.6 WNW SWELL 8.4
2024-04-13 07:40 am 9.5 9.2 10.8 W 1.6 4.5 WNW AVERAGE 9.0
2024-04-13 07:10 am 7.9 7.9 10.8WNW 1.3 3.4 WNW SWELL 8.5
2024-04-13 06:40 am 7.5 7.5 10.8 W 1.3 3.3 NW SWELL 8.3
2024-04-13 06:10 am 8.5 8.5 10.8 W 1.3 3.6 W AVERAGE 8.6
2024-04-13 05:40 am 7.5 7.5 11.4 W 1.0 4.0 WNW SWELL 8.6
2024-04-13 05:10 am 8.2 8.2 12.1 W 1.0 3.6 WNW SWELL 8.8

Plot of wave energy versus frequency (and period)